[[{"header":{"parameterUnit":"m.s-1","parameterCategory":1,"la1":30.2991,"la2":30.254,"lo1":-89.0895,"lo2":-89.0444,"dy":0.0017,"dx":0.0017,"nx":28,"ny":28,"refTime":"2024-07-23T21:00:00:Z","depth":0,"parameterNumber":2,"parameterNumberName":"U-component_of_WINDS"},"data":[0,0,0,0,0,0,0,0,0,0,0,0,0,0,0,0,0,0,0,0,0,0,0,0,0,0,0,0,0,0,0,0,0,0,0,0,0,0,0,0,0,0,0,0,0,0,0,0,0,0,0,0,0,0,0,0,0,0,2.4211,2.421,0,2.407,2.4068,2.4067,2.3986,2.3986,2.3986,2.3985,2.3831,2.3828,2.3824,0,0,0,0,0,0,0,0,0,0,0,0,0,2.4404,2.4401,2.4212,2.421,2.4208,2.407,2.4068,2.4066,2.3986,2.3986,2.3986,2.3985,2.3833,2.3828,2.3824,0,0,0,0,0,0,0,0,0,0,0,0,0,2.4297,2.44,2.4212,2.4152,2.4145,2.4071,2.4068,2.4066,2.3986,2.3986,2.3986,2.3985,2.3834,2.3829,2.3823,2.3795,0,0,2.3805,2.3803,0,0,0,0,0,0,0,0,2.4303,2.429,2.4162,2.4156,2.4148,2.4046,2.4079,2.3975,2.3986,2.4046,2.3985,2.3985,2.3902,2.3891,2.3865,2.3788,2.3781,2.3805,2.3801,2.3799,2.3797,0,0,0,0,0,0,0,2.4311,2.4296,2.4155,2.4161,2.4152,2.4129,2.4113,2.4059,2.3978,2.4041,2.4035,2.402,2.3898,2.3871,2.3861,2.3779,2.3805,2.38,2.3796,2.3794,2.3669,2.3669,0,0,0,0,0,0,2.4329,2.4302,2.416,2.4151,2.4227,2.4126,2.4108,2.4079,2.3978,2.3963,2.402,2.4016,2.3881,2.3868,2.3855,2.3814,2.3799,2.3793,2.379,2.3669,2.3669,2.3669,0,0,0,0,0,0,2.4333,2.4317,2.4165,2.4225,2.4204,2.4123,2.409,2.4076,2.4048,2.3963,2.3947,2.4008,2.388,2.3863,2.3811,2.3808,2.3791,2.3785,2.3669,2.3669,2.3669,2.3734,0,0,0,0,0,0,2.4339,2.4319,2.431,2.4226,2.4201,2.4126,2.409,2.4074,2.404,2.4034,2.3947,2.3932,2.3878,2.382,2.3805,2.38,2.3781,2.3668,2.3669,2.3669,2.3731,2.3736,2.374,0,0,0,0,0,2.4346,2.4332,2.431,2.4293,2.4188,2.4126,2.4112,2.4054,2.404,2.4028,2.3973,2.3934,2.3811,2.3815,2.3798,2.3791,2.3668,2.3669,2.3669,2.3729,2.3735,2.374,0,0,0,0,0,0,2.4414,2.432,2.4294,2.4252,2.4199,2.4113,2.4097,2.4062,2.4008,2.4004,2.3931,2.3912,2.3866,2.3823,2.3829,2.3757,2.3735,2.3732,2.3787,2.3792,2.3796,2.3807,2.3776,0,0,0,0,0,2.4425,2.4386,2.4304,2.4275,2.425,2.4178,2.4149,2.4109,2.4049,2.4025,2.3965,2.3906,2.3854,2.382,2.3768,2.3725,2.3704,2.3712,2.3716,2.372,2.3718,2.369,2.3692,2.367,2.367,2.367,0,0,2.4446,2.4389,2.4368,2.4287,2.4241,2.4199,2.4159,2.4117,2.4084,2.4017,2.3964,2.3919,2.3848,2.38,2.3776,2.3762,2.3719,2.3721,2.3724,2.3719,2.3691,2.3693,2.3695,2.3671,2.3671,2.3671,0,0,2.4462,2.4416,2.4387,2.4342,2.4273,2.4225,2.4219,2.4138,2.4107,2.4054,2.4002,2.3961,2.3873,2.3824,2.3787,2.3786,2.3747,2.377,2.3792,2.3766,2.3768,2.3769,2.3767,2.3767,2.3768,2.3768,2.3768,0,2.4495,2.4433,2.4375,2.4336,2.4301,2.4242,2.4209,2.4167,2.4084,2.4059,2.4047,2.3935,2.3882,2.3822,2.3822,2.3795,2.3782,2.3779,2.3773,2.3774,2.3774,2.3771,2.377,2.3772,2.3771,2.3771,2.3771,0,2.4477,2.4434,2.4418,2.4342,2.4305,2.427,2.4204,2.4173,2.4136,2.4089,2.4034,2.397,2.3903,2.3886,2.3848,2.3819,2.3813,2.3788,2.3764,2.378,2.3776,2.3774,2.3776,2.3775,2.3774,2.3773,0,0,2.4531,2.4424,2.4419,2.4384,2.4304,2.4268,2.4229,2.4166,2.414,2.4084,2.4048,2.3975,2.3951,2.391,2.3866,2.3844,2.3845,2.3821,2.3818,2.3826,2.3807,2.3826,2.3825,2.382,2.382,2.3819,2.3812,0,2.4534,2.4464,2.4411,2.436,2.4319,2.4262,2.4228,2.4173,2.4129,2.4085,2.4033,2.3983,2.3956,2.3931,2.3907,2.385,2.384,2.385,2.3782,2.378,2.3801,2.3823,2.3843,2.384,2.3811,2.381,2.381,0,2.4529,2.4478,2.4424,2.4348,2.4329,2.4299,2.4237,2.4197,2.4133,2.4102,2.4057,2.4012,2.3965,2.3947,2.388,2.3888,2.3857,2.3825,2.3824,2.3814,2.3795,2.3812,2.3837,2.3836,2.3807,2.3807,2.3807,0,2.4572,2.449,2.4447,2.4418,2.4329,2.4309,2.4271,2.4207,2.4172,2.4117,2.4093,2.4032,2.3998,2.3951,2.389,2.3883,2.3828,2.3805,2.3798,2.38,2.3788,2.3789,2.3807,2.3771,2.3771,2.3771,2.3771,0,2.458,2.4549,2.4465,2.4438,2.4401,2.4339,2.4302,2.4258,2.4202,2.4164,2.411,2.4074,2.3997,2.3951,2.3903,2.3853,2.3838,2.381,2.3797,2.3814,2.3817,2.3791,2.3789,2.3771,2.3771,2.3771,2.3771,0,2.4621,2.4564,2.4514,2.4434,2.4413,2.4389,2.4319,2.429,2.4243,2.4195,2.418,2.4104,2.4048,2.3983,2.3904,2.3871,2.3825,2.3807,2.3847,2.384,2.3836,2.3836,2.3836,2.3831,2.3801,2.3801,2.3801,0,2.463,2.4605,2.4524,2.4496,2.446,2.4415,2.438,2.4318,2.4283,2.4209,2.4187,2.4127,2.4076,2.3987,2.3923,2.3862,2.3841,2.3845,2.3831,2.3849,2.3839,2.3841,2.3837,2.3849,2.3849,2.385,2.385,0,2.4651,2.4624,2.4578,2.4522,2.4483,2.4435,2.4384,2.4363,2.4289,2.4253,2.4196,2.4156,2.4077,2.4017,2.3948,2.3904,2.3864,2.3856,2.385,2.3867,2.389,2.3876,2.3856,2.3855,2.3855,2.3855,2.3854,2.3854,2.4675,2.465,2.4589,2.4539,2.4495,2.4449,2.4417,2.4367,2.432,2.4252,2.4217,2.4161,2.4095,2.3999,2.3957,2.391,2.3896,2.3889,2.3887,2.3886,2.389,2.39,2.3897,2.3896,2.3896,2.3896,2.3896,0,2.4691,2.465,2.4605,2.4537,2.4497,2.4467,2.4409,2.4377,2.4328,2.4273,2.4224,2.4158,2.4099,2.4032,2.3968,2.3943,2.3923,2.3928,2.3928,2.3919,2.3906,2.3916,2.3946,2.3946,2.3946,2.3946,2.3946,2.3946,2.4696,2.4651,2.4618,2.455,2.4507,2.4454,2.4423,2.438,2.4335,2.4265,2.4217,2.4175,2.4113,2.4045,2.3989,2.397,2.3948,2.3959,2.3935,2.3924,2.392,2.3916,2.3925,2.3955,2.3955,2.3951,2.3951,2.3951]},{"header":{"parameterUnit":"m.s-1","parameterCategory":1,"la1":30.2991,"la2":30.254,"lo1":-89.0895,"lo2":-89.0444,"dy":0.0017,"dx":0.0017,"nx":28,"ny":28,"refTime":"2024-07-23T21:00:00:Z","depth":0,"parameterNumber":3,"parameterNumberName":"V-component_of_WINDS"},"data":[0,0,0,0,0,0,0,0,0,0,0,0,0,0,0,0,0,0,0,0,0,0,0,0,0,0,0,0,0,0,0,0,0,0,0,0,0,0,0,0,0,0,0,0,0,0,0,0,0,0,0,0,0,0,0,0,0,0,0.7437,0.7439,0,0.7624,0.7626,0.7628,0.77,0.7699,0.7699,0.7698,0.7883,0.7888,0.7894,0,0,0,0,0,0,0,0,0,0,0,0,0,0.7136,0.7141,0.7437,0.744,0.7442,0.7623,0.7626,0.7628,0.77,0.7699,0.7699,0.7698,0.7881,0.7888,0.7894,0,0,0,0,0,0,0,0,0,0,0,0,0,0.7288,0.7143,0.7437,0.75,0.7507,0.7623,0.7626,0.7629,0.77,0.7699,0.7699,0.7698,0.7879,0.7887,0.7895,0.796,0,0,0.792,0.7923,0,0,0,0,0,0,0,0,0.728,0.7299,0.7488,0.7496,0.7504,0.7638,0.7587,0.774,0.77,0.7627,0.7698,0.7697,0.7802,0.7816,0.7853,0.7969,0.7977,0.792,0.7925,0.7929,0.7931,0,0,0,0,0,0,0,0.7269,0.7292,0.7511,0.7491,0.7501,0.7516,0.7537,0.7617,0.7716,0.7633,0.7639,0.766,0.7806,0.7845,0.7857,0.7979,0.792,0.7927,0.7932,0.7936,0.8156,0.8157,0,0,0,0,0,0,0.7249,0.7283,0.7505,0.7516,0.7388,0.7522,0.7545,0.7596,0.7715,0.7733,0.7661,0.7663,0.7831,0.7848,0.7864,0.7948,0.7929,0.7936,0.7941,0.8155,0.8156,0.8157,0,0,0,0,0,0,0.7242,0.7268,0.7497,0.7401,0.7432,0.7528,0.7584,0.76,0.7639,0.7736,0.7754,0.7682,0.7831,0.7853,0.7936,0.7955,0.794,0.7947,0.8154,0.8155,0.8157,0.8116,0,0,0,0,0,0,0.7233,0.7265,0.7293,0.7401,0.7436,0.7568,0.7585,0.7604,0.7653,0.7658,0.7761,0.7778,0.7832,0.7923,0.7944,0.7966,0.7954,0.8153,0.8155,0.8156,0.8116,0.8116,0.8116,0,0,0,0,0,0.7222,0.7273,0.7294,0.7321,0.7474,0.7569,0.7589,0.7653,0.7654,0.7682,0.7744,0.7774,0.7949,0.7931,0.7955,0.798,0.8152,0.8154,0.8156,0.8116,0.8116,0.8116,0,0,0,0,0,0,0.7163,0.7289,0.7313,0.7401,0.7474,0.7581,0.7618,0.7651,0.7723,0.7724,0.7798,0.782,0.7897,0.7946,0.7924,0.8048,0.8052,0.8059,0.8014,0.8014,0.8014,0.8001,0.796,0,0,0,0,0,0.7161,0.723,0.7335,0.7402,0.7438,0.7521,0.7565,0.7608,0.7686,0.7716,0.7785,0.7857,0.7928,0.7974,0.8045,0.8122,0.8145,0.8151,0.8151,0.815,0.8156,0.82,0.8203,0.8165,0.8165,0.8165,0,0,0.7156,0.7233,0.7272,0.7392,0.7454,0.7522,0.7547,0.7618,0.7669,0.7726,0.781,0.7862,0.7947,0.8028,0.8066,0.8071,0.8171,0.8153,0.8152,0.8158,0.8202,0.8206,0.8209,0.8166,0.8166,0.8166,0,0,0.7182,0.7248,0.7311,0.7372,0.7465,0.752,0.7535,0.7637,0.7674,0.7759,0.7803,0.7863,0.7984,0.8043,0.8089,0.8134,0.8164,0.8154,0.8155,0.8196,0.8199,0.8202,0.8218,0.8223,0.8159,0.8159,0.8159,0,0.7164,0.7271,0.7339,0.7408,0.7459,0.7515,0.7578,0.7633,0.7743,0.7776,0.7779,0.7932,0.7994,0.8088,0.8099,0.8134,0.8152,0.8144,0.8194,0.8197,0.8201,0.8217,0.8223,0.8158,0.8158,0.8158,0.8158,0,0.7244,0.7317,0.7356,0.7464,0.7518,0.7584,0.7658,0.7705,0.7741,0.7795,0.7879,0.7954,0.8041,0.8066,0.8101,0.8165,0.8165,0.818,0.8186,0.8202,0.8218,0.8225,0.8155,0.8156,0.8156,0.8157,0,0,0.7241,0.7384,0.7397,0.7446,0.7552,0.7608,0.7674,0.7761,0.7799,0.7872,0.7929,0.8029,0.8043,0.8095,0.8137,0.8173,0.8204,0.8184,0.8187,0.8186,0.8277,0.8266,0.8272,0.8223,0.8225,0.8226,0.827,0,0.7282,0.7407,0.7468,0.7565,0.7633,0.7685,0.7742,0.7812,0.7862,0.7924,0.7979,0.8049,0.8063,0.8094,0.8132,0.8192,0.8223,0.8189,0.8275,0.8278,0.8254,0.8281,0.827,0.8308,0.8276,0.8278,0.8278,0,0.7348,0.7423,0.7527,0.7623,0.7654,0.7705,0.7788,0.7847,0.7925,0.7959,0.8016,0.8057,0.8126,0.8125,0.822,0.8196,0.8233,0.8267,0.827,0.8282,0.828,0.8294,0.8322,0.8327,0.8289,0.8288,0.8287,0,0.7336,0.7462,0.7541,0.7581,0.7695,0.7729,0.7778,0.7856,0.7903,0.7974,0.8005,0.8083,0.8125,0.8183,0.8242,0.8236,0.8331,0.8335,0.836,0.8359,0.838,0.8378,0.8415,0.8401,0.8401,0.8401,0.8401,0,0.7377,0.7438,0.7537,0.7585,0.7655,0.7723,0.7789,0.7841,0.7909,0.7966,0.8014,0.8067,0.8142,0.8202,0.8249,0.832,0.8338,0.8366,0.8378,0.8363,0.836,0.8391,0.839,0.8403,0.8403,0.8402,0.8402,0,0.7376,0.7445,0.7534,0.7635,0.7661,0.7708,0.7793,0.784,0.7892,0.7964,0.7984,0.8065,0.8139,0.8204,0.8301,0.8332,0.8405,0.8419,0.8379,0.8386,0.8407,0.8405,0.8467,0.8478,0.8455,0.8455,0.8455,0,0.7399,0.7448,0.7553,0.7597,0.7645,0.7713,0.7762,0.7829,0.7877,0.7969,0.8004,0.8082,0.8148,0.8262,0.8328,0.8402,0.8419,0.8435,0.843,0.8413,0.842,0.8417,0.8422,0.8436,0.8435,0.8435,0.8435,0,0.7431,0.7462,0.7532,0.7613,0.767,0.7737,0.7805,0.7836,0.7915,0.7966,0.8043,0.8094,0.8193,0.8269,0.8349,0.8397,0.8429,0.8436,0.8446,0.8432,0.8407,0.8421,0.838,0.8435,0.8435,0.8435,0.8435,0.8435,0.7443,0.7489,0.7571,0.7646,0.7704,0.7766,0.7815,0.7873,0.7939,0.8027,0.8061,0.8139,0.8213,0.8325,0.8372,0.8432,0.8438,0.8451,0.8455,0.8458,0.8456,0.8396,0.8447,0.8447,0.8447,0.8447,0.8447,0,0.7479,0.7533,0.7602,0.7696,0.7754,0.778,0.7856,0.7902,0.7971,0.8039,0.8103,0.819,0.8263,0.8333,0.8409,0.8444,0.846,0.8462,0.8461,0.8471,0.8446,0.8431,0.8447,0.8447,0.8447,0.8447,0.8447,0.8447,0.7504,0.7583,0.7623,0.7729,0.7783,0.7862,0.7902,0.7958,0.8013,0.8108,0.817,0.8216,0.8284,0.8365,0.8432,0.8451,0.8477,0.8474,0.8497,0.8473,0.8472,0.8472,0.8458,0.8479,0.8479,0.8517,0.8517,0.8517]}]]